Weather History for Greenville, NC

Change the Weather History Date:

Monday, November 19, 2012

  Actual Average Record
Temperature  
Mean Temperature 50 °F -  
Max Temperature 53 °F 64 °F 85 °F (1938)
Min Temperature 46 °F 38 °F 19 °F (2014)
Degree Days  
Heating Degree Days 16    
Moisture  
Dew Point 45 °F    
Average Humidity 84    
Maximum Humidity 93    
Minimum Humidity 76    
Precipitation  
Precipitation 0.00 in - - ()
Sea Level Pressure  
Sea Level Pressure 30.22 in    
Wind  
Wind Speed 12 mph (North)    
Max Wind Speed 17 mph    
Max Gust Speed 24 mph    
Visibility 10 miles    
Events Thunderstorm    
Averages and records for this station are not official NWS values.
T = Trace of Precipitation, MM = Missing Value Source: NWS Daily Summary

Daily Weather History Graph

Daily Weather History Graph

Search for Another Location

Airport:

Trip Planner

Search our weather history database for the weather conditions in past years. The results will help you decide how hot, cold, wet, or windy it might be!

Date:

Astronomy

Nov. 19, 2012 Rise Set
Actual Time 6:49 AM EST 5:00 PM EST
Civil Twilight 6:22 AM EST 5:27 PM EST
Nautical Twilight 5:51 AM EST 5:58 PM EST
Astronomical Twilight 5:20 AM EST 6:28 PM EST
Moon 11:55 AM EST (11/19) 11:19 PM EST (11/19)
Length of Visible Light 11h 05m
Length of Day
10h 10m
Waxing Crescent, 40% of the Moon is Illuminated
Nov 19
Waxing Crescent
Nov 20
First Quarter
Nov 28
Full
Dec 6
Last Quarter
Dec 13
New

Hourly Weather History & Observations

Time (EST) Temp. Windchill Dew Point Humidity Pressure Visibility Wind Dir Wind Speed Gust Speed Precip Events Conditions
12:15 AM 48.2 °F - 46.4 °F 93% 30.29 in 7.0 mi North 9.2 mph - N/A   Overcast
12:55 AM 50.0 °F - 46.4 °F 87% 30.28 in 10.0 mi North 11.5 mph - N/A   Overcast
1:15 AM 50.0 °F - 44.6 °F 82% 30.28 in 10.0 mi NNE 13.8 mph - N/A Thunderstorm Overcast
1:35 AM 50.0 °F - 44.6 °F 82% 30.27 in 10.0 mi NNE 13.8 mph 21.9 mph N/A   Overcast
1:55 AM 50.0 °F - 44.6 °F 82% 30.28 in 10.0 mi North 12.7 mph - N/A   Overcast
2:15 AM 50.0 °F - 44.6 °F 82% 30.27 in 10.0 mi NNE 15.0 mph 19.6 mph N/A   Overcast
2:35 AM 50.0 °F - 44.6 °F 82% 30.27 in 10.0 mi North 12.7 mph 21.9 mph N/A   Overcast
2:55 AM 50.0 °F - 44.6 °F 82% 30.26 in 10.0 mi NNE 15.0 mph - N/A   Overcast
3:15 AM 50.0 °F - 44.6 °F 82% 30.26 in 10.0 mi North 11.5 mph 19.6 mph N/A   Overcast
3:35 AM 50.0 °F - 44.6 °F 82% 30.25 in 10.0 mi North 13.8 mph 20.7 mph N/A   Overcast
3:55 AM 50.0 °F - 44.6 °F 82% 30.25 in 10.0 mi North 10.4 mph 20.7 mph N/A   Overcast
4:15 AM 50.0 °F - 44.6 °F 82% 30.25 in 10.0 mi NNE 11.5 mph 18.4 mph N/A   Overcast
4:35 AM 50.0 °F - 44.6 °F 82% 30.24 in 10.0 mi North 12.7 mph 17.3 mph N/A   Overcast
4:55 AM 50.0 °F - 44.6 °F 82% 30.25 in 10.0 mi North 12.7 mph 17.3 mph N/A   Overcast
5:15 AM 48.2 °F - 44.6 °F 87% 30.25 in 10.0 mi North 11.5 mph 19.6 mph N/A   Overcast
5:35 AM 48.2 °F - 44.6 °F 87% 30.25 in 10.0 mi North 13.8 mph 19.6 mph N/A   Overcast
5:55 AM 48.2 °F - 42.8 °F 82% 30.25 in 10.0 mi North 12.7 mph 18.4 mph N/A   Overcast
6:15 AM 48.2 °F - 42.8 °F 82% 30.26 in 10.0 mi North 15.0 mph 21.9 mph N/A   Overcast
6:35 AM 48.2 °F - 44.6 °F 87% 30.26 in 10.0 mi North 12.7 mph 19.6 mph N/A   Overcast
6:55 AM 48.2 °F - 44.6 °F 87% 30.26 in 10.0 mi North 12.7 mph 18.4 mph N/A   Overcast
7:15 AM 48.2 °F - 44.6 °F 87% 30.26 in 10.0 mi North 11.5 mph - N/A   Overcast
7:35 AM 48.2 °F - 44.6 °F 87% 30.26 in 10.0 mi North 12.7 mph - N/A   Overcast
7:55 AM 48.2 °F - 44.6 °F 87% 30.26 in 10.0 mi North 12.7 mph 19.6 mph N/A   Overcast
8:35 AM 48.2 °F - 44.6 °F 87% 30.26 in 10.0 mi North 15.0 mph 23.0 mph N/A   Overcast
8:55 AM 50.0 °F - 44.6 °F 82% 30.26 in 10.0 mi North 15.0 mph 19.6 mph N/A   Overcast
9:15 AM 50.0 °F - 44.6 °F 82% 30.26 in 10.0 mi North 13.8 mph 21.9 mph N/A   Overcast
9:35 AM 50.0 °F - 44.6 °F 82% 30.26 in 10.0 mi North 12.7 mph 20.7 mph N/A   Overcast
9:55 AM 50.0 °F - 44.6 °F 82% 30.26 in 10.0 mi North 12.7 mph 19.6 mph N/A   Overcast
10:15 AM 50.0 °F - 44.6 °F 82% 30.25 in 10.0 mi North 15.0 mph - N/A   Overcast
10:35 AM 50.0 °F - 44.6 °F 82% 30.24 in 10.0 mi North 10.4 mph 19.6 mph N/A   Overcast
10:55 AM 50.0 °F - 44.6 °F 82% 30.24 in 10.0 mi North 15.0 mph 20.7 mph N/A   Overcast
11:15 AM 50.0 °F - 44.6 °F 82% 30.24 in 10.0 mi North 15.0 mph 20.7 mph N/A   Overcast
11:35 AM 51.8 °F - 44.6 °F 76% 30.23 in 10.0 mi North 13.8 mph 21.9 mph N/A   Overcast
11:55 AM 51.8 °F - 46.4 °F 82% 30.23 in 10.0 mi North 11.5 mph 19.6 mph N/A   Overcast
12:15 PM 51.8 °F - 46.4 °F 82% 30.21 in 10.0 mi North 10.4 mph 19.6 mph N/A   Overcast
12:35 PM 51.8 °F - 46.4 °F 82% 30.21 in 10.0 mi North 12.7 mph - N/A   Overcast
12:55 PM 51.8 °F - 46.4 °F 82% 30.21 in 10.0 mi North 12.7 mph - N/A   Overcast
1:15 PM 53.6 °F - 46.4 °F 77% 30.20 in 10.0 mi North 16.1 mph - N/A   Overcast
1:35 PM 51.8 °F - 46.4 °F 82% 30.19 in 10.0 mi North 15.0 mph - N/A   Overcast
2:15 PM 51.8 °F - 46.4 °F 82% 30.19 in 10.0 mi North 15.0 mph 20.7 mph N/A   Overcast
2:35 PM 51.8 °F - 46.4 °F 82% 30.18 in 10.0 mi North 16.1 mph 23.0 mph N/A   Overcast
2:55 PM 51.8 °F - 46.4 °F 82% 30.19 in 10.0 mi North 11.5 mph 19.6 mph N/A   Overcast
3:15 PM 51.8 °F - 46.4 °F 82% 30.19 in 10.0 mi North 13.8 mph 20.7 mph N/A   Overcast
3:35 PM 51.8 °F - 46.4 °F 82% 30.19 in 10.0 mi NNE 13.8 mph 19.6 mph N/A   Overcast
3:55 PM 51.8 °F - 46.4 °F 82% 30.19 in 10.0 mi North 17.3 mph 24.2 mph N/A   Overcast
4:15 PM 51.8 °F - 44.6 °F 76% 30.19 in 10.0 mi North 15.0 mph 23.0 mph N/A   Overcast
4:55 PM 51.8 °F - 44.6 °F 76% 30.19 in 10.0 mi North 15.0 mph 21.9 mph N/A   Overcast
5:15 PM 51.8 °F - 44.6 °F 76% 30.19 in 10.0 mi North 8.1 mph 18.4 mph N/A   Overcast
5:35 PM 50.0 °F - 44.6 °F 82% 30.19 in 10.0 mi North 11.5 mph - N/A   Overcast
5:55 PM 50.0 °F - 44.6 °F 82% 30.20 in 10.0 mi North 9.2 mph - N/A   Overcast
6:15 PM 50.0 °F - 44.6 °F 82% 30.20 in 10.0 mi North 15.0 mph 21.9 mph N/A   Overcast
6:35 PM 50.0 °F - 44.6 °F 82% 30.20 in 10.0 mi North 13.8 mph 20.7 mph N/A   Overcast
6:55 PM 50.0 °F - 44.6 °F 82% 30.20 in 10.0 mi North 11.5 mph - N/A   Overcast
7:15 PM 50.0 °F - 44.6 °F 82% 30.20 in 10.0 mi North 10.4 mph - N/A   Overcast
7:35 PM 50.0 °F - 44.6 °F 82% 30.21 in 10.0 mi North 12.7 mph 19.6 mph N/A   Overcast
7:55 PM 50.0 °F - 44.6 °F 82% 30.20 in 10.0 mi North 11.5 mph 18.4 mph N/A   Overcast
8:15 PM 50.0 °F - 44.6 °F 82% 30.20 in 10.0 mi North 10.4 mph - N/A   Overcast
8:35 PM 48.2 °F - 44.6 °F 87% 30.19 in 10.0 mi North 13.8 mph - N/A   Overcast
8:55 PM 48.2 °F - 44.6 °F 87% 30.19 in 10.0 mi North 17.3 mph - N/A   Overcast
9:15 PM 48.2 °F - 44.6 °F 87% 30.19 in 10.0 mi North 8.1 mph - N/A   Overcast
9:35 PM 48.2 °F - 44.6 °F 87% 30.19 in 10.0 mi North 10.4 mph - N/A   Overcast
10:15 PM 48.2 °F - 44.6 °F 87% 30.18 in 10.0 mi North 10.4 mph 16.1 mph N/A   Overcast
10:35 PM 46.4 °F 41.9 °F 44.6 °F 93% 30.17 in 10.0 mi NNE 9.2 mph - N/A   Overcast
10:55 PM 46.4 °F 41.1 °F 44.6 °F 93% 30.17 in 10.0 mi North 11.5 mph - N/A   Overcast
11:15 PM 46.4 °F 41.9 °F 44.6 °F 93% 30.16 in 10.0 mi North 9.2 mph - N/A   Overcast
11:35 PM 46.4 °F 42.9 °F 44.6 °F 93% 30.15 in 10.0 mi North 6.9 mph - N/A   Overcast
11:55 PM 46.4 °F 41.9 °F 44.6 °F 93% 30.15 in 10.0 mi North 9.2 mph - N/A   Overcast